"Pseudo-MPEC" for MZ26289

Created 2026 Jul 21 15:35:04 UT using Find_Orb

Click here for an explanation of pseudo-MPECs

 
 Astrometry: 
     MZ26289*KB2026 07 19.78028 19 35 11.22 -14 22 52.8    ~7KDo 18.3 GXNEOCPN86
     MZ26289 KB2026 07 19.78488 19 35 12.36 -14 21 31.0    ~7KDo 18.5 GXNEOCPN86
     MZ26289 KB2026 07 19.78946 19 35 13.46 -14 20 10.5    ~7KDo 18.2 GXNEOCPN86
     MZ26289 KB2026 07 20.70452 19 39 55.24 -09 40 59.3    ~7L7Z 18.2 GXNEOCPN88
     MZ26289 KB2026 07 20.70915 19 39 56.47 -09 39 33.9    ~7L7Z 18.0 GXNEOCPN88
     MZ26289 KB2026 07 20.71373 19 39 57.57 -09 38 07.1    ~7L7Z 18.1 GXNEOCPN88
     MZ26289 0C2026 07 21.00004219 41 26.342-08 06 58.86   ~7L1o 18.95wVNEOCPR17
     MZ26289 0C2026 07 21.01419619 41 29.786-08 02 28.46   ~7L1o 17.95wVNEOCPR17
     MZ26289 0C2026 07 21.02833419 41 33.214-07 57 58.54   ~7L1o 18.78wVNEOCPR17
     MZ26289 0C2026 07 21.04248619 41 36.602-07 53 25.30   ~7L1o 18.48wVNEOCPR17
     MZ26289 KC2026 07 21.51455 19 44 07.96 -05 17 48.6    ~7LDZ 18.2 GVNEOCPE23
     MZ26289 KC2026 07 21.52358 19 44 10.25 -05 14 51.7    ~7LDZ 19.0 GVNEOCPE23
     MZ26289 KC2026 07 21.53260 19 44 12.50 -05 11 55.5    ~7LDZ 18.7 GVNEOCPE23
     MZ26289 KB2026 07 21.55763419 44 21.218-05 07 15.47   ~7LE5 17.0 GXNEOCPQ06
     MZ26289 KB2026 07 21.56234519 44 22.469-05 05 43.95   ~7LE5 17.3 GXNEOCPQ06
     MZ26289 KB2026 07 21.56705619 44 23.642-05 04 11.27   ~7LE5 16.9 GXNEOCPQ06
     MZ26289 KB2026 07 21.59498919 44 30.770-04 55 02.24   ~7LFK 17.7 GWNEOCP900
     MZ26289 KB2026 07 21.60205419 44 32.498-04 52 44.36   ~7LFK 18.6 GWNEOCP900
     MZ26289 KB2026 07 21.60911919 44 34.250-04 50 26.23   ~7LFK 18.5 GWNEOCP900

Station data:
(900) Moriyama  (N35.049753 E135.989940)  Japan.  Observer Y. Ikari. 0.26-m
   f/7.0 reflector + CCD.
(E23) Arcadia  (S33.621197 E151.071190)  Australia/NSW.  Observer A. Hidas.
   0.35-m f/1.9 reflector + CCD.
(N86) Xingming Observatory-KATS, Nanshan  (N43.473806 E87.178520)  China.
   Observers Observers X. Gao, Q.-Z. Ye. Measurer Q.-Z. Ye. 0.28-m f/2.2
   Schmidt.
(N88) Xingming Observatory #3, Nanshan  (N43.471784 E87.173220)  China.
   Observer X. Gao. Measurer Q.-Z. Ye. 0.6-m f/8 Ritchey-Chrétien + CCD.
(Q06) Tarui Observatory, Tarui  (N35.394791 E136.495470)  Japan.  Observer H.
   Watanabe. 0.35-m f/1.9 Schmidt-Cassegrain + CMO.
(R17) ATLAS-TDO  (N28.298778 W16.510310)  Canary Islands (Spain).  Observers
   L. Denneau, R. Siverd, J. Tonry, H. Weiland, J. Licandro, M. Alarcon.
   Measurers L. Denneau, N. Erasmus, A. Fitzsimmons, J. Robinson, R. Siverd,
   J. Tonry, H. Weiland, J. Licandro, M. Alarcon. 0.56-m f/2.2 Astrograph +
   CMOS.

Orbital elements:  MZ26289
   Perihelion 2026 Aug 12.889490 +/- 0.0146 TT = 21:20:51.9 (JD 2461265.389490)
Epoch 2026 Jul 21.0 TT = JDT 2461242.5   Earth MOID: 0.0456      AutoNEOCP
M 348.848725947 +/- 0.030           (J2000 ecliptic)
n   0.487178785 +/- 0.00107         Peri.   27.387406 +/- 0.012
a   1.599596592 +/- 0.00234         Node   294.923240 +/- 0.00046
e   0.35147231 +/- 0.000912         Incl.   11.341282 +/- 0.020
P   2.023/738.934d         H 24.11  G  0.15   U  8.1
q 1.037382673 +/- 6.14e-5    Q 2.161810511 +/- 0.00462
From 19 observations 2026 July 19-21 (43.9 hr); mean residual 0".46
Residuals in arcseconds: 
260719 N86  .11-  .40+    260721 R17  .25-  .13-    260721 Q06  .50+  .30-    
260719 N86  .18+  .34+    260721 R17  .14+  .65-    260721 Q06  .24+  .12+    
260719 N86  .05-  .70-    260721 R17  .06-  1.5+    260721 900  .46+  .63+    
260720 N88  .22-  .69+    260721 E23  .18-  .18-    260721 900  .11-  .16-    
260720 N88  .72+  .90-    260721 E23  .08+  .18+    260721 900  .31-  .76-    
260720 N88  .04-  .18-    260721 E23  .08-  .09-    
260721 R17  .65-  .15-    260721 Q06  .36-  .41+    

Ephemerides (geocentric):
Date (UTC) HH   RA             Dec           delta  r     elong  mag " sig PA
---- --------  ------------   ------------  ------ ------ -----  --- --------
2026 07 21 16  19 44 52.086   -04 29 34.30  .04654 1.0607 163.5 18.4 .126 136
2026 07 21 17  19 45 05.230   -04 15 53.99  .04651 1.0606 163.3 18.4 .121 132
2026 07 21 18  19 45 18.390   -04 02 12.45  .04647 1.0606 163.0 18.5 .117 127
2026 07 21 19  19 45 31.564   -03 48 29.70  .04644 1.0605 162.8 18.5 .114 122
2026 07 21 20  19 45 44.753   -03 34 45.78  .04640 1.0604 162.6 18.5 .112 116
2026 07 21 21  19 45 57.957   -03 21 00.71  .04637 1.0603 162.4 18.5 .110 110
2026 07 21 22  19 46 11.175   -03 07 14.51  .04633 1.0602 162.2 18.5 .110 104
2026 07 21 23  19 46 24.409   -02 53 27.23  .04630 1.0601 162.0 18.5 .111  98
2026 07 22 00  19 46 37.657   -02 39 38.88  .04627 1.0600 161.8 18.5 .114  92
2026 07 22 01  19 46 50.920   -02 25 49.50  .04624 1.0600 161.6 18.5 .117  86
2026 07 22 02  19 47 04.197   -02 11 59.12  .04621 1.0599 161.4 18.5 .122  81
2026 07 22 03  19 47 17.489   -01 58 07.76  .04618 1.0598 161.1 18.5 .128  76
2026 07 22 04  19 47 30.796   -01 44 15.45  .04615 1.0597 160.9 18.5 .135  71
2026 07 22 05  19 47 44.117   -01 30 22.22  .04613 1.0596 160.7 18.5 .143  67
2026 07 22 06  19 47 57.452   -01 16 28.11  .04610 1.0595 160.5 18.5 .151  63
2026 07 22 07  19 48 10.802   -01 02 33.15  .04608 1.0595 160.3 18.5 .161  59
2026 07 22 08  19 48 24.167   -00 48 37.36  .04605 1.0594 160.1 18.5 .171  56
2026 07 22 09  19 48 37.546   -00 34 40.77  .04603 1.0593 159.8 18.5 .182  53
2026 07 22 10  19 48 50.939   -00 20 43.42  .04601 1.0592 159.6 18.5 .194  50
2026 07 22 11  19 49 04.347   -00 06 45.33  .04598 1.0591 159.4 18.5 .205  48
2026 07 22 12  19 49 17.769   +00 07 13.46  .04596 1.0590 159.2 18.5 .218  46
2026 07 22 13  19 49 31.205   +00 21 12.92  .04594 1.0590 159.0 18.6 .231  44
2026 07 22 14  19 49 44.656   +00 35 13.02  .04592 1.0589 158.8 18.6 .244  42
2026 07 22 15  19 49 58.121   +00 49 13.72  .04590 1.0588 158.5 18.6 .258  41
2026 07 22 16  19 50 11.600   +01 03 15.01  .04589 1.0587 158.3 18.6 .272  39
2026 07 22 17  19 50 25.093   +01 17 16.84  .04587 1.0586 158.1 18.6 .286  38
2026 07 22 18  19 50 38.600   +01 31 19.18  .04585 1.0585 157.9 18.6 .300  37
2026 07 22 19  19 50 52.121   +01 45 22.01  .04584 1.0585 157.7 18.6 .315  35
2026 07 22 20  19 51 05.657   +01 59 25.28  .04582 1.0584 157.4 18.6 .331  34
2026 07 22 21  19 51 19.206   +02 13 28.97  .04581 1.0583 157.2 18.6 .346  33
2026 07 22 22  19 51 32.769   +02 27 33.05  .04580 1.0582 157.0 18.6 .362  33
2026 07 22 23  19 51 46.346   +02 41 37.48  .04578 1.0581 156.8 18.6 .378  32
2026 07 23 00  19 51 59.937   +02 55 42.23  .04577 1.0581 156.6 18.6 .394  31
2026 07 23 01  19 52 13.542   +03 09 47.27  .04576 1.0580 156.3 18.6 .411  30
2026 07 23 02  19 52 27.161   +03 23 52.56  .04575 1.0579 156.1 18.6 .428  29
2026 07 23 03  19 52 40.794   +03 37 58.07  .04574 1.0578 155.9 18.6 .445  29
2026 07 23 04  19 52 54.440   +03 52 03.78  .04574 1.0577 155.7 18.6 .462  28
2026 07 23 05  19 53 08.100   +04 06 09.64  .04573 1.0577 155.5 18.6 .479  28
2026 07 23 06  19 53 21.774   +04 20 15.63  .04572 1.0576 155.2 18.6 .497  27
2026 07 23 07  19 53 35.461   +04 34 21.71  .04572 1.0575 155.0 18.7 .515  27
2026 07 23 08  19 53 49.162   +04 48 27.85  .04571 1.0574 154.8 18.7 .533  26
2026 07 23 09  19 54 02.877   +05 02 34.01  .04571 1.0573 154.6 18.7 .551  26
2026 07 23 10  19 54 16.605   +05 16 40.17  .04571 1.0573 154.3 18.7 .570  25
2026 07 23 11  19 54 30.346   +05 30 46.29  .04571 1.0572 154.1 18.7 .589  25
2026 07 23 12  19 54 44.101   +05 44 52.33  .04571 1.0571 153.9 18.7 .608  24
2026 07 23 13  19 54 57.870   +05 58 58.27  .04571 1.0570 153.7 18.7 .627  24
2026 07 23 14  19 55 11.651   +06 13 04.08  .04571 1.0569 153.5 18.7 .646  24
2026 07 23 15  19 55 25.447   +06 27 09.71  .04571 1.0569 153.2 18.7 .665  23